Track CHUANG XIN 1 (CZ-1) now! 10-day predictions CHUANG XIN 1 (CZ-1) is classified as:
1 28058U 03049B 22179.60896675 .00000090 00000-0 37514-4 0 9990 2 28058 98.6924 34.0974 0011761 245.1430 114.8539 14.47147347986540